Time,TemperatureF,DewpointF,PressureIn,WindDirection,WindDirectionDegrees,WindSpeedMPH,WindSpeedGustMPH,Humidity,HourlyPrecipIn,Conditions,Clouds,dailyrainin,SolarRadiationWatts/m^2,SoftwareType,DateUTC
2013-04-28 00:00:00,59.7,50.3,30.13,ENE,75,1.0,1.0,71,0.00,,,0.00,0,Wunderground v.1.15,2013-04-28 04:00:00,
2013-04-28 00:10:00,59.8,50.8,30.14,East,84,0.0,0.0,72,0.00,,,0.00,0,Wunderground v.1.15,2013-04-28 04:10:00,
2013-04-28 00:20:00,59.7,51.0,30.14,East,84,0.0,1.0,73,0.00,,,0.00,0,Wunderground v.1.15,2013-04-28 04:20:00,
2013-04-28 00:30:00,59.5,50.5,30.13,ESE,114,1.0,1.0,72,0.00,,,0.00,0,Wunderground v.1.15,2013-04-28 04:30:00,
2013-04-28 00:40:00,59.2,50.5,30.13,SE,138,0.0,0.0,73,0.00,,,0.00,0,Wunderground v.1.15,2013-04-28 04:40:00,
2013-04-28 00:50:00,59.0,50.7,30.13,SE,138,0.0,0.0,74,0.00,,,0.00,0,Wunderground v.1.15,2013-04-28 04:50:00,
2013-04-28 01:00:00,58.5,50.6,30.12,SE,138,0.0,0.0,75,0.00,,,0.00,0,Wunderground v.1.15,2013-04-28 05:00:00,
2013-04-28 01:10:00,58.0,50.5,30.12,SE,138,0.0,0.0,76,0.00,,,0.00,0,Wunderground v.1.15,2013-04-28 05:10:00,
2013-04-28 01:20:00,57.4,49.9,30.12,SE,138,0.0,0.0,76,0.00,,,0.00,0,Wunderground v.1.15,2013-04-28 05:20:00,
2013-04-28 01:30:00,56.9,50.1,30.11,SE,138,0.0,0.0,78,0.00,,,0.00,0,Wunderground v.1.15,2013-04-28 05:30:00,
2013-04-28 01:40:00,56.0,49.6,30.11,SE,138,0.0,0.0,79,0.00,,,0.00,0,Wunderground v.1.15,2013-04-28 05:40:00,
2013-04-28 01:50:00,55.1,49.0,30.10,SE,138,0.0,0.0,80,0.00,,,0.00,0,Wunderground v.1.15,2013-04-28 05:50:00,
2013-04-28 02:00:00,54.5,48.5,30.09,SE,138,0.0,0.0,80,0.00,,,0.00,0,Wunderground v.1.15,2013-04-28 06:00:00,
2013-04-28 02:10:00,53.7,48.3,30.09,SE,138,0.0,0.0,82,0.00,,,0.00,0,Wunderground v.1.15,2013-04-28 06:10:00,
2013-04-28 02:20:00,53.1,48.1,30.08,SE,138,0.0,0.0,83,0.00,,,0.00,0,Wunderground v.1.15,2013-04-28 06:20:00,
2013-04-28 02:30:00,52.7,48.0,30.08,SE,138,0.0,0.0,84,0.00,,,0.00,0,Wunderground v.1.15,2013-04-28 06:30:00,
2013-04-28 02:40:00,52.4,47.7,30.08,SE,138,0.0,0.0,84,0.00,,,0.00,0,Wunderground v.1.15,2013-04-28 06:40:00,
2013-04-28 02:50:00,52.1,47.4,30.07,SE,138,0.0,0.0,84,0.00,,,0.00,0,Wunderground v.1.15,2013-04-28 06:50:00,
2013-04-28 03:00:00,51.7,47.0,30.07,SE,138,0.0,0.0,84,0.00,,,0.00,0,Wunderground v.1.15,2013-04-28 07:00:00,
2013-04-28 03:10:00,51.3,46.6,30.06,SE,138,0.0,0.0,84,0.00,,,0.00,0,Wunderground v.1.15,2013-04-28 07:10:00,
2013-04-28 03:20:00,50.8,46.5,30.06,SE,138,0.0,0.0,85,0.00,,,0.00,0,Wunderground v.1.15,2013-04-28 07:20:00,
2013-04-28 03:30:00,50.5,46.2,30.05,SE,138,0.0,0.0,85,0.00,,,0.00,0,Wunderground v.1.15,2013-04-28 07:30:00,
2013-04-28 03:40:00,50.3,46.3,30.05,SE,138,0.0,0.0,86,0.00,,,0.00,0,Wunderground v.1.15,2013-04-28 07:40:00,
2013-04-28 03:50:00,50.2,46.2,30.05,SE,138,0.0,0.0,86,0.00,,,0.00,0,Wunderground v.1.15,2013-04-28 07:50:00,
2013-04-28 04:00:00,50.1,46.1,30.04,SE,138,0.0,0.0,86,0.00,,,0.00,0,Wunderground v.1.15,2013-04-28 08:00:00,
2013-04-28 04:10:00,50.1,46.1,30.04,SE,138,0.0,0.0,86,0.00,,,0.00,0,Wunderground v.1.15,2013-04-28 08:10:00,
2013-04-28 04:20:00,50.1,46.4,30.04,SE,138,0.0,0.0,87,0.00,,,0.00,0,Wunderground v.1.15,2013-04-28 08:20:00,
2013-04-28 04:30:00,50.1,46.4,30.04,SE,138,0.0,0.0,87,0.00,,,0.00,0,Wunderground v.1.15,2013-04-28 08:30:00,
2013-04-28 04:40:00,50.1,46.4,30.04,SE,138,0.0,0.0,87,0.00,,,0.00,0,Wunderground v.1.15,2013-04-28 08:40:00,
2013-04-28 04:50:00,50.3,46.6,30.04,SE,138,0.0,0.0,87,0.00,,,0.00,0,Wunderground v.1.15,2013-04-28 08:50:00,
2013-04-28 05:00:00,50.6,47.2,30.03,SE,138,0.0,0.0,88,0.00,,,0.00,0,Wunderground v.1.15,2013-04-28 09:00:00,
2013-04-28 05:10:00,51.0,47.6,30.03,SE,138,0.0,0.0,88,0.00,,,0.00,0,Wunderground v.1.15,2013-04-28 09:10:00,
2013-04-28 05:20:00,51.4,48.0,30.03,SE,138,0.0,0.0,88,0.00,,,0.00,0,Wunderground v.1.15,2013-04-28 09:20:00,
2013-04-28 05:30:00,52.1,48.3,30.03,ESE,115,1.0,2.0,87,0.00,,,0.00,0,Wunderground v.1.15,2013-04-28 09:30:00,
2013-04-28 05:40:00,53.9,49.5,30.03,SE,133,2.0,2.0,85,0.00,,,0.00,0,Wunderground v.1.15,2013-04-28 09:40:00,
2013-04-28 05:50:00,55.1,50.7,30.03,ESE,108,1.0,1.0,85,0.00,,,0.00,0,Wunderground v.1.15,2013-04-28 09:50:00,
2013-04-28 06:00:00,55.4,51.3,30.03,NE,34,0.0,0.0,86,0.00,,,0.00,0,Wunderground v.1.15,2013-04-28 10:00:00,
2013-04-28 06:10:00,55.2,51.1,30.04,NE,34,0.0,0.0,86,0.00,,,0.01,0,Wunderground v.1.15,2013-04-28 10:10:00,
2013-04-28 06:20:00,54.9,51.1,30.03,NE,34,0.0,0.0,87,0.04,,,0.02,0,Wunderground v.1.15,2013-04-28 10:20:00,
2013-04-28 06:30:00,54.4,50.6,30.03,NNE,24,1.0,1.0,87,0.04,,,0.02,0,Wunderground v.1.15,2013-04-28 10:30:00,
2013-04-28 06:40:00,54.0,50.5,30.03,NE,50,1.0,1.0,88,0.00,,,0.03,0,Wunderground v.1.15,2013-04-28 10:40:00,
2013-04-28 06:50:00,53.9,50.4,30.03,NNE,22,0.0,0.0,88,0.04,,,0.04,0,Wunderground v.1.15,2013-04-28 10:50:00,
2013-04-28 07:00:00,53.7,50.2,30.03,SE,138,1.0,2.0,88,0.04,,,0.04,0,Wunderground v.1.15,2013-04-28 11:00:00,
2013-04-28 07:10:00,53.6,50.4,30.03,SE,130,1.0,1.0,89,0.00,,,0.05,0,Wunderground v.1.15,2013-04-28 11:10:00,
2013-04-28 07:20:00,53.6,50.4,30.03,NE,55,1.0,1.0,89,0.00,,,0.05,7,Wunderground v.1.15,2013-04-28 11:20:00,
2013-04-28 07:30:00,53.5,50.3,30.03,WSW,253,1.0,1.0,89,0.04,,,0.06,9,Wunderground v.1.15,2013-04-28 11:30:00,
2013-04-28 07:40:00,53.5,50.3,30.03,ESE,113,1.0,1.0,89,0.00,,,0.06,12,Wunderground v.1.15,2013-04-28 11:40:00,
2013-04-28 07:50:00,53.5,50.3,30.03,SSE,147,1.0,1.0,89,0.00,,,0.07,19,Wunderground v.1.15,2013-04-28 11:50:00,
2013-04-28 08:00:00,53.5,50.3,30.04,SSW,193,2.0,2.0,89,0.04,,,0.08,28,Wunderground v.1.15,2013-04-28 12:00:00,
2013-04-28 08:10:00,53.6,50.4,30.04,ESE,107,1.0,1.0,89,0.04,,,0.08,26,Wunderground v.1.15,2013-04-28 12:10:00,
2013-04-28 08:20:00,53.7,50.5,30.04,ENE,63,2.0,3.0,89,0.00,,,0.08,35,Wunderground v.1.15,2013-04-28 12:20:00,
2013-04-28 08:30:00,53.7,50.5,30.04,SE,145,1.0,2.0,89,0.00,,,0.09,26,Wunderground v.1.15,2013-04-28 12:30:00,
2013-04-28 08:40:00,53.8,50.6,30.04,East,90,1.0,3.0,89,0.00,,,0.09,32,Wunderground v.1.15,2013-04-28 12:40:00,
2013-04-28 08:50:00,53.9,50.7,30.04,ESE,106,2.0,3.0,89,0.00,,,0.10,58,Wunderground v.1.15,2013-04-28 12:50:00,
2013-04-28 09:00:00,54.0,50.8,30.03,SE,141,1.0,1.0,89,0.00,,,0.10,63,Wunderground v.1.15,2013-04-28 13:00:00,
2013-04-28 09:10:00,54.1,50.9,30.03,East,95,2.0,2.0,89,0.00,,,0.10,42,Wunderground v.1.15,2013-04-28 13:10:00,
2013-04-28 09:20:00,54.1,50.9,30.03,SE,139,1.0,3.0,89,0.00,,,0.11,65,Wunderground v.1.15,2013-04-28 13:20:00,
2013-04-28 09:30:00,54.3,51.1,30.02,SSE,147,2.0,2.0,89,0.00,,,0.11,67,Wunderground v.1.15,2013-04-28 13:30:00,
2013-04-28 09:40:00,54.5,51.3,30.02,SE,142,1.0,2.0,89,0.00,,,0.11,109,Wunderground v.1.15,2013-04-28 13:40:00,
2013-04-28 09:50:00,54.8,51.6,30.01,NNE,22,2.0,2.0,89,0.00,,,0.12,135,Wunderground v.1.15,2013-04-28 13:50:00,
2013-04-28 10:00:00,55.0,51.5,30.01,ENE,70,2.0,4.0,88,0.00,,,0.12,144,Wunderground v.1.15,2013-04-28 14:00:00,
2013-04-28 10:10:00,55.4,51.9,30.01,ESE,109,2.0,2.0,88,0.00,,,0.12,230,Wunderground v.1.15,2013-04-28 14:10:00,
2013-04-28 10:20:00,55.9,52.1,30.01,ENE,57,3.0,4.0,87,0.00,,,0.12,274,Wunderground v.1.15,2013-04-28 14:20:00,
2013-04-28 10:30:00,56.7,52.9,30.01,ESE,115,3.0,3.0,87,0.00,,,0.12,316,Wunderground v.1.15,2013-04-28 14:30:00,
2013-04-28 10:40:00,57.3,52.8,30.01,ESE,111,3.0,3.0,85,0.00,,,0.12,214,Wunderground v.1.15,2013-04-28 14:40:00,
2013-04-28 10:50:00,57.7,53.2,30.01,East,93,3.0,3.0,85,0.00,,,0.13,243,Wunderground v.1.15,2013-04-28 14:50:00,
2013-04-28 11:00:00,58.0,53.5,30.01,SE,127,2.0,4.0,85,0.00,,,0.13,227,Wunderground v.1.15,2013-04-28 15:00:00,
2013-04-28 11:10:00,58.3,53.5,30.01,ESE,121,3.0,3.0,84,0.00,,,0.13,234,Wunderground v.1.15,2013-04-28 15:10:00,
2013-04-28 11:20:00,58.5,53.7,30.01,SE,139,3.0,5.0,84,0.00,,,0.13,269,Wunderground v.1.15,2013-04-28 15:20:00,
2013-04-28 11:30:00,58.9,53.7,30.01,SSE,148,3.0,3.0,83,0.00,,,0.13,287,Wunderground v.1.15,2013-04-28 15:30:00,
2013-04-28 11:40:00,59.2,54.0,30.01,SE,138,2.0,4.0,83,0.00,,,0.13,378,Wunderground v.1.15,2013-04-28 15:40:00,
2013-04-28 11:50:00,60.0,54.2,30.01,SE,144,2.0,5.0,81,0.00,,,0.13,494,Wunderground v.1.15,2013-04-28 15:50:00,
2013-04-28 12:00:00,60.5,54.0,30.00,SE,144,2.0,2.0,79,0.00,,,0.13,185,Wunderground v.1.15,2013-04-28 16:00:00,
2013-04-28 12:10:00,60.4,53.9,30.00,SE,144,2.0,5.0,79,0.00,,,0.13,162,Wunderground v.1.15,2013-04-28 16:10:00,
2013-04-28 12:20:00,60.4,54.5,30.00,ESE,102,2.0,2.0,81,0.00,,,0.13,329,Wunderground v.1.15,2013-04-28 16:20:00,
2013-04-28 12:30:00,60.8,54.2,29.99,ENE,57,2.0,2.0,79,0.00,,,0.13,352,Wunderground v.1.15,2013-04-28 16:30:00,
2013-04-28 12:40:00,61.5,54.9,30.00,ESE,115,2.0,2.0,79,0.00,,,0.13,383,Wunderground v.1.15,2013-04-28 16:40:00,
2013-04-28 12:50:00,62.1,54.4,29.99,SSE,166,2.0,3.0,76,0.00,,,0.13,452,Wunderground v.1.15,2013-04-28 16:50:00,
2013-04-28 13:00:00,62.7,55.0,29.99,NNW,340,3.0,4.0,76,0.00,,,0.13,362,Wunderground v.1.15,2013-04-28 17:00:00,
2013-04-28 13:10:00,63.1,54.7,29.98,East,89,3.0,5.0,74,0.00,,,0.13,461,Wunderground v.1.15,2013-04-28 17:10:00,
2013-04-28 13:20:00,63.4,55.0,29.98,NNE,16,3.0,4.0,74,0.00,,,0.13,329,Wunderground v.1.15,2013-04-28 17:20:00,
2013-04-28 13:30:00,63.4,54.2,29.98,North,5,3.0,3.0,72,0.00,,,0.13,265,Wunderground v.1.15,2013-04-28 17:30:00,
2013-04-28 13:40:00,63.2,54.8,29.97,ENE,69,2.0,2.0,74,0.00,,,0.13,278,Wunderground v.1.15,2013-04-28 17:40:00,
2013-04-28 13:50:00,63.3,54.1,29.96,SE,146,2.0,4.0,72,0.00,,,0.13,290,Wunderground v.1.15,2013-04-28 17:50:00,
2013-04-28 14:00:00,63.8,55.4,29.95,SE,137,1.0,1.0,74,0.00,,,0.13,666,Wunderground v.1.15,2013-04-28 18:00:00,
2013-04-28 14:10:00,64.8,55.2,29.95,ESE,103,4.0,4.0,71,0.00,,,0.13,619,Wunderground v.1.15,2013-04-28 18:10:00,
2013-04-28 14:20:00,65.6,55.9,29.94,ESE,117,3.0,3.0,71,0.00,,,0.13,489,Wunderground v.1.15,2013-04-28 18:20:00,
2013-04-28 14:30:00,66.3,56.6,29.94,ESE,107,3.0,3.0,71,0.00,,,0.13,436,Wunderground v.1.15,2013-04-28 18:30:00,
2013-04-28 14:40:00,66.4,55.9,29.93,ESE,109,2.0,2.0,69,0.00,,,0.13,297,Wunderground v.1.15,2013-04-28 18:40:00,
2013-04-28 14:50:00,66.3,54.6,29.93,NNW,328,3.0,3.0,66,0.00,,,0.13,267,Wunderground v.1.15,2013-04-28 18:50:00,
2013-04-28 15:00:00,66.1,55.2,29.92,East,101,1.0,1.0,68,0.00,,,0.13,251,Wunderground v.1.15,2013-04-28 19:00:00,
2013-04-28 15:10:00,66.0,55.5,29.92,SW,220,2.0,2.0,69,0.00,,,0.13,221,Wunderground v.1.15,2013-04-28 19:10:00,
2013-04-28 15:20:00,66.0,55.1,29.93,South,171,1.0,1.0,68,0.00,,,0.13,209,Wunderground v.1.15,2013-04-28 19:20:00,
2013-04-28 15:30:00,66.0,55.1,29.92,SE,140,1.0,1.0,68,0.00,,,0.13,206,Wunderground v.1.15,2013-04-28 19:30:00,
2013-04-28 15:40:00,66.1,55.2,29.92,ENE,64,2.0,2.0,68,0.00,,,0.13,352,Wunderground v.1.15,2013-04-28 19:40:00,
2013-04-28 15:50:00,66.5,55.2,29.92,ESE,122,2.0,2.0,67,0.00,,,0.13,343,Wunderground v.1.15,2013-04-28 19:50:00,
2013-04-28 16:00:00,67.0,56.1,29.91,ESE,123,3.0,4.0,68,0.00,,,0.13,339,Wunderground v.1.15,2013-04-28 20:00:00,
2013-04-28 16:10:00,67.4,56.5,29.91,SSE,150,3.0,4.0,68,0.00,,,0.13,455,Wunderground v.1.15,2013-04-28 20:10:00,
2013-04-28 16:20:00,67.9,57.4,29.91,SSW,200,3.0,3.0,69,0.00,,,0.13,436,Wunderground v.1.15,2013-04-28 20:20:00,
2013-04-28 16:30:00,68.0,56.2,29.90,SSE,159,5.0,5.0,66,0.00,,,0.13,306,Wunderground v.1.15,2013-04-28 20:30:00,
2013-04-28 16:40:00,68.2,56.0,29.90,ESE,115,1.0,3.0,65,0.00,,,0.13,378,Wunderground v.1.15,2013-04-28 20:40:00,
2013-04-28 16:50:00,68.5,55.8,29.90,NE,45,3.0,4.0,64,0.00,,,0.13,308,Wunderground v.1.15,2013-04-28 20:50:00,
2013-04-28 17:00:00,68.5,56.7,29.89,NE,36,3.0,3.0,66,0.00,,,0.13,330,Wunderground v.1.15,2013-04-28 21:00:00,
2013-04-28 17:10:00,68.6,56.8,29.89,North,5,2.0,2.0,66,0.00,,,0.13,271,Wunderground v.1.15,2013-04-28 21:10:00,
2013-04-28 17:20:00,68.5,55.8,29.88,SE,140,2.0,4.0,64,0.00,,,0.13,160,Wunderground v.1.15,2013-04-28 21:20:00,
2013-04-28 17:30:00,68.2,56.0,29.88,SSE,150,2.0,2.0,65,0.00,,,0.13,91,Wunderground v.1.15,2013-04-28 21:30:00,
2013-04-28 17:40:00,67.7,55.5,29.88,East,100,1.0,1.0,65,0.00,,,0.13,39,Wunderground v.1.15,2013-04-28 21:40:00,
2013-04-28 17:50:00,67.2,55.5,29.88,SSE,154,2.0,2.0,66,0.00,,,0.13,16,Wunderground v.1.15,2013-04-28 21:50:00,
2013-04-28 18:00:00,66.8,55.5,29.88,SE,144,1.0,1.0,67,0.00,,,0.13,39,Wunderground v.1.15,2013-04-28 22:00:00,
2013-04-28 18:10:00,66.4,55.5,29.88,SE,142,1.0,2.0,68,0.00,,,0.13,77,Wunderground v.1.15,2013-04-28 22:10:00,
2013-04-28 18:20:00,66.3,55.0,29.88,East,97,3.0,3.0,67,0.00,,,0.13,58,Wunderground v.1.15,2013-04-28 22:20:00,
2013-04-28 18:30:00,66.2,54.9,29.89,South,179,3.0,3.0,67,0.00,,,0.13,39,Wunderground v.1.15,2013-04-28 22:30:00,
2013-04-28 18:40:00,66.0,54.7,29.88,SE,132,3.0,3.0,67,0.00,,,0.13,35,Wunderground v.1.15,2013-04-28 22:40:00,
2013-04-28 18:50:00,65.8,54.9,29.89,SSE,157,2.0,2.0,68,0.00,,,0.13,16,Wunderground v.1.15,2013-04-28 22:50:00,
2013-04-28 19:00:00,65.6,54.8,29.89,SSE,150,0.0,6.0,68,0.00,,,0.13,14,Wunderground v.1.15,2013-04-28 23:00:00,
2013-04-28 19:10:00,65.2,54.8,29.89,SE,136,2.0,4.0,69,0.00,,,0.13,11,Wunderground v.1.15,2013-04-28 23:10:00,
2013-04-28 19:20:00,64.8,54.4,29.90,South,178,3.0,4.0,69,0.00,,,0.13,11,Wunderground v.1.15,2013-04-28 23:20:00,
2013-04-28 19:30:00,64.5,54.5,29.90,East,97,2.0,3.0,70,0.00,,,0.13,134,Wunderground v.1.15,2013-04-28 23:30:00,
2013-04-28 19:40:00,64.5,54.5,29.91,ESE,113,4.0,4.0,70,0.00,,,0.13,63,Wunderground v.1.15,2013-04-28 23:40:00,
2013-04-28 19:50:00,64.2,54.2,29.90,East,94,2.0,2.0,70,0.00,,,0.13,25,Wunderground v.1.15,2013-04-28 23:50:00,
2013-04-28 20:00:00,63.6,54.0,29.90,ESE,112,1.0,1.0,71,0.00,,,0.13,11,Wunderground v.1.15,2013-04-29 00:00:00,
2013-04-28 20:10:00,63.1,54.3,29.90,SE,130,1.0,2.0,73,0.00,,,0.13,5,Wunderground v.1.15,2013-04-29 00:10:00,
2013-04-28 20:20:00,62.6,53.8,29.90,SSE,157,1.0,1.0,73,0.00,,,0.13,0,Wunderground v.1.15,2013-04-29 00:20:00,
2013-04-28 20:30:00,62.3,53.9,29.90,SSE,157,0.0,0.0,74,0.00,,,0.13,0,Wunderground v.1.15,2013-04-29 00:30:00,
2013-04-28 20:50:00,61.4,54.1,29.91,SE,133,0.0,0.0,77,0.00,,,0.13,0,Wunderground v.1.15,2013-04-29 00:50:00,
2013-04-28 21:00:00,60.9,53.6,29.91,SE,131,0.0,0.0,77,0.00,,,0.13,0,Wunderground v.1.15,2013-04-29 01:00:00,
2013-04-28 21:10:00,60.8,53.2,29.91,SSE,156,1.0,1.0,76,0.00,,,0.13,0,Wunderground v.1.15,2013-04-29 01:10:00,
2013-04-28 21:20:00,60.7,53.4,29.91,ESE,109,1.0,1.0,77,0.00,,,0.13,0,Wunderground v.1.15,2013-04-29 01:20:00,
2013-04-28 21:30:00,60.5,52.9,29.92,North,351,1.0,1.0,76,0.00,,,0.13,0,Wunderground v.1.15,2013-04-29 01:30:00,
2013-04-28 21:50:00,61.0,53.0,29.92,NE,38,2.0,2.0,75,0.00,,,0.13,0,Wunderground v.1.15,2013-04-29 01:50:00,
2013-04-28 22:00:00,61.1,53.1,29.92,ESE,120,0.0,0.0,75,0.00,,,0.13,0,Wunderground v.1.15,2013-04-29 02:00:00,
2013-04-28 22:11:00,61.3,52.9,29.92,SE,131,2.0,2.0,74,0.00,,,0.13,0,Wunderground v.1.15,2013-04-29 02:11:00,
2013-04-28 22:20:00,61.4,52.7,29.92,ESE,120,1.0,2.0,73,0.00,,,0.13,0,Wunderground v.1.15,2013-04-29 02:20:00,
2013-04-28 22:30:00,61.5,52.8,29.92,SE,128,2.0,2.0,73,0.00,,,0.13,0,Wunderground v.1.15,2013-04-29 02:30:00,
2013-04-28 22:40:00,61.6,52.9,29.92,ENE,58,0.0,0.0,73,0.00,,,0.13,0,Wunderground v.1.15,2013-04-29 02:40:00,
2013-04-28 22:50:00,61.6,53.2,29.92,ESE,122,1.0,1.0,74,0.00,,,0.13,0,Wunderground v.1.15,2013-04-29 02:50:00,
2013-04-28 23:00:00,61.4,52.7,29.92,SE,135,0.0,0.0,73,0.00,,,0.13,0,Wunderground v.1.15,2013-04-29 03:00:00,
2013-04-28 23:20:00,61.2,52.8,29.92,SE,128,0.0,0.0,74,0.00,,,0.13,0,Wunderground v.1.15,2013-04-29 03:20:00,
2013-04-28 23:30:00,61.0,53.0,29.92,NE,51,0.0,0.0,75,0.00,,,0.13,0,Wunderground v.1.15,2013-04-29 03:30:00,
2013-04-28 23:50:00,60.6,52.6,29.92,East,98,0.0,0.0,75,0.00,,,0.13,0,Wunderground v.1.15,2013-04-29 03:50:00,